BV1EV-2 Weather Reports


time (UTC)temp
C
wind
direction
speed
KPH
gust
KPH
rain 1hr
cm
rain 24hr
cm
rain mn
cm
humidity
%
barometer
mb
20260509101748 27 0.0 0.0 0.00 0.00 0.00 58 1014.3
20260509095748 27 0.0 0.0 0.00 0.00 0.00 57 1014.4
20260509093747 27 0.0 0.0 0.00 0.00 0.00 56 1014.2
20260509091748 27 0.0 0.0 0.00 0.00 0.00 56 1014.3
20260509085748 27 0.0 0.0 0.00 0.00 0.00 56 1014.2
20260509083748 27 0.0 0.0 0.00 0.00 0.00 55 1014.2
20260509081747 28 0.0 0.0 0.00 0.00 0.00 48 1014.1
20260509075748 28 0.0 0.0 0.00 0.00 0.00 47 1014.1
20260509073747 28 0.0 0.0 0.00 0.00 0.00 49 1014.0
20260509071748 28 0.0 0.0 0.00 0.00 0.00 44 1014.2
20260509065748 28 0.0 0.0 0.00 0.00 0.00 41 1014.1
20260509063748 28 0.0 0.0 0.00 0.00 0.00 44 1014.0
20260509061748 29 0.0 0.0 0.00 0.00 0.00 44 1014.1
20260509055748 29 0.0 0.0 0.00 0.00 0.00 50 1014.6
20260509053748 29 0.0 0.0 0.00 0.00 0.00 50 1014.5
20260509051747 29 0.0 0.0 0.00 0.00 0.00 50 1014.8
20260509045748 29 0.0 0.0 0.00 0.00 0.00 51 1015.1
20260509043747 27 0.0 0.0 0.00 0.00 0.00 58 1015.4
20260509041748 27 0.0 0.0 0.00 0.00 0.00 57 1015.4
20260509035748 27 0.0 0.0 0.00 0.00 0.00 57 1015.7
20260509033748 26 0.0 0.0 0.00 0.00 0.00 57 1016.0
20260509031748 28 0.0 0.0 0.00 0.00 0.00 47 1016.3
20260509025748 28 0.0 0.0 0.00 0.00 0.00 48 1016.6
20260509023747 28 0.0 0.0 0.00 0.00 0.00 52 1016.9
20260509021747 28 0.0 0.0 0.00 0.00 0.00 52 1016.8
20260509015747 27 0.0 0.0 0.00 0.00 0.00 53 1017.2
20260509013748 28 0.0 0.0 0.00 0.00 0.00 51 1017.0
20260509011748 28 0.0 0.0 0.00 0.00 0.00 48 1017.1
20260509005748 27 0.0 0.0 0.00 0.00 0.00 47 1016.8
20260509003747 27 0.0 0.0 0.00 0.00 0.00 46 1016.6
20260509001748 27 0.0 0.0 0.00 0.00 0.00 48 1016.6
20260508235748 27 0.0 0.0 0.00 0.00 0.00 48 1016.3
20260508233748 28 0.0 0.0 0.00 0.00 0.00 49 1016.2
20260508231748 28 0.0 0.0 0.00 0.00 0.00 49 1016.1
20260508225748 28 0.0 0.0 0.00 0.00 0.00 50 1015.9
20260508223748 28 0.0 0.0 0.00 0.00 0.00 50 1015.7
20260508221748 28 0.0 0.0 0.00 0.00 0.00 50 1015.5
20260508215748 28 0.0 0.0 0.00 0.00 0.00 47 1015.4
20260508213747 27 0.0 0.0 0.00 0.00 0.00 44 1015.3
20260508211748 27 0.0 0.0 0.00 0.00 0.00 46 1014.9
20260508205747 28 0.0 0.0 0.00 0.00 0.00 46 1014.8
20260508203748 28 0.0 0.0 0.00 0.00 0.00 47 1014.5
20260508201747 27 0.0 0.0 0.00 0.00 0.00 48 1014.2
20260508195748 28 0.0 0.0 0.00 0.00 0.00 48 1014.3
20260508193747 28 0.0 0.0 0.00 0.00 0.00 48 1014.0
20260508191748 28 0.0 0.0 0.00 0.00 0.00 50 1013.8
20260508185748 28 0.0 0.0 0.00 0.00 0.00 49 1014.1
20260508183747 27 0.0 0.0 0.00 0.00 0.00 44 1014.3
20260508181748 28 0.0 0.0 0.00 0.00 0.00 45 1014.3
20260508175748 28 0.0 0.0 0.00 0.00 0.00 43 1014.3
20260508173747 27 0.0 0.0 0.00 0.00 0.00 43 1014.6
20260508171747 27 0.0 0.0 0.00 0.00 0.00 51 1014.7
20260508165747 28 0.0 0.0 0.00 0.00 0.00 48 1015.1
20260508163748 28 0.0 0.0 0.00 0.00 0.00 47 1015.3
20260508161748 29 0.0 0.0 0.00 0.00 0.00 50 1015.5
20260508155748 29 0.0 0.0 0.00 0.00 0.00 51 1015.6
20260508153747 29 0.0 0.0 0.00 0.00 0.00 52 1015.6
20260508151747 29 0.0 0.0 0.00 0.00 0.00 49 1015.9
20260508145747 28 0.0 0.0 0.00 0.00 0.00 46 1015.9
20260508143748 28 0.0 0.0 0.00 0.00 0.00 51 1016.1
20260508141748 28 0.0 0.0 0.00 0.00 0.00 47 1016.1
20260508135747 29 0.0 0.0 0.00 0.00 0.00 55 1016.2
20260508133748 28 0.0 0.0 0.00 0.00 0.00 54 1016.1
20260508131748 28 0.0 0.0 0.00 0.00 0.00 46 1016.1
20260508125748 28 0.0 0.0 0.00 0.00 0.00 48 1015.9
20260508123747 28 0.0 0.0 0.00 0.00 0.00 47 1015.8
20260508121747 29 0.0 0.0 0.00 0.00 0.00 48 1015.6
20260508115747 29 0.0 0.0 0.00 0.00 0.00 52 1015.3
20260508113748 28 0.0 0.0 0.00 0.00 0.00 49 1015.0
20260508111748 28 0.0 0.0 0.00 0.00 0.00 48 1014.9
20260508105747 28 0.0 0.0 0.00 0.00 0.00 47 1014.6
20260508103747 28 0.0 0.0 0.00 0.00 0.00 46 1014.4